Time,TemperatureF,DewpointF,PressureIn,WindDirection,WindDirectionDegrees,WindSpeedMPH,WindSpeedGustMPH,Humidity,HourlyPrecipIn,Conditions,Clouds,dailyrainin,SoftwareType,DateUTC
2013-03-03 00:02:00,35.0,28.0,29.64,NW,309,1.0,4.0,75,0.00,,,0.00,,2013-03-03 05:02:00,
2013-03-03 00:12:00,35.0,28.0,29.64,NW,309,1.0,4.0,75,0.00,,,0.00,,2013-03-03 05:12:00,
2013-03-03 00:22:00,35.0,28.0,29.64,NW,326,2.0,6.0,75,0.00,,,0.00,,2013-03-03 05:22:00,
2013-03-03 00:32:00,35.0,28.0,29.64,WNW,283,3.0,7.0,75,0.00,,,0.00,,2013-03-03 05:32:00,
2013-03-03 00:42:00,35.0,28.0,29.64,WNW,283,3.0,7.0,75,0.00,,,0.00,,2013-03-03 05:42:00,
2013-03-03 00:52:00,35.0,28.0,29.64,North,357,4.0,9.0,76,0.00,,,0.00,,2013-03-03 05:52:00,
2013-03-03 01:02:00,34.0,28.0,29.64,NW,313,2.0,7.0,77,0.00,,,0.00,,2013-03-03 06:02:00,
2013-03-03 01:11:00,34.0,28.0,29.64,NW,313,2.0,7.0,77,0.00,,,0.00,,2013-03-03 06:11:00,
2013-03-03 01:21:00,34.0,28.0,29.64,WNW,301,4.0,7.0,77,0.00,,,0.00,,2013-03-03 06:21:00,
2013-03-03 01:32:00,34.0,28.0,29.64,NW,304,3.0,9.0,77,0.00,,,0.00,,2013-03-03 06:32:00,
2013-03-03 01:42:00,34.0,28.0,29.64,NW,304,3.0,9.0,77,0.00,,,0.00,,2013-03-03 06:42:00,
2013-03-03 01:52:00,34.0,28.0,29.64,NW,316,1.0,6.0,78,0.00,,,0.00,,2013-03-03 06:52:00,
2013-03-03 02:01:00,33.0,27.0,29.63,NW,313,3.0,7.0,79,0.00,,,0.00,,2013-03-03 07:01:00,
2013-03-03 02:11:00,33.0,27.0,29.63,NW,313,3.0,7.0,79,0.00,,,0.00,,2013-03-03 07:11:00,
2013-03-03 02:21:00,33.0,27.0,29.63,North,11,2.0,4.0,79,0.00,,,0.00,,2013-03-03 07:21:00,
2013-03-03 02:32:00,33.0,28.0,29.63,NW,305,1.0,5.0,80,0.00,,,0.00,,2013-03-03 07:32:00,
2013-03-03 02:42:00,33.0,28.0,29.63,NW,305,1.0,5.0,80,0.00,,,0.00,,2013-03-03 07:42:00,
2013-03-03 02:52:00,33.0,28.0,29.63,WNW,291,1.0,3.0,81,0.00,,,0.00,,2013-03-03 07:52:00,
2013-03-03 03:01:00,33.0,28.0,29.63,WNW,298,3.0,7.0,81,0.00,,,0.00,,2013-03-03 08:01:00,
2013-03-03 03:11:00,33.0,28.0,29.63,WNW,298,3.0,7.0,81,0.00,,,0.00,,2013-03-03 08:11:00,
2013-03-03 03:21:00,33.0,28.0,29.62,NW,313,2.0,7.0,82,0.00,,,0.00,,2013-03-03 08:21:00,
2013-03-03 03:31:00,32.0,27.0,29.62,NW,304,3.0,7.0,82,0.00,,,0.00,,2013-03-03 08:31:00,
2013-03-03 03:42:00,32.0,27.0,29.62,NW,304,3.0,7.0,82,0.00,,,0.00,,2013-03-03 08:42:00,
2013-03-03 03:54:00,32.0,27.0,29.62,NNW,329,4.0,7.0,82,0.00,,,0.00,,2013-03-03 08:54:00,
2013-03-03 04:01:00,32.0,27.0,29.62,WSW,240,2.0,5.0,82,0.00,,,0.00,,2013-03-03 09:01:00,
2013-03-03 04:12:00,32.0,27.0,29.62,WSW,240,2.0,5.0,82,0.00,,,0.00,,2013-03-03 09:12:00,
2013-03-03 04:21:00,32.0,27.0,29.62,WSW,249,2.0,7.0,82,0.00,,,0.00,,2013-03-03 09:21:00,
2013-03-03 04:32:00,32.0,27.0,29.62,WNW,302,2.0,7.0,83,0.00,,,0.00,,2013-03-03 09:32:00,
2013-03-03 04:42:00,32.0,27.0,29.62,WNW,302,2.0,7.0,83,0.00,,,0.00,,2013-03-03 09:42:00,
2013-03-03 04:52:00,32.0,27.0,29.62,WSW,239,1.0,5.0,83,0.00,,,0.00,,2013-03-03 09:52:00,
2013-03-03 05:01:00,32.0,27.0,29.62,WNW,302,2.0,6.0,83,0.00,,,0.00,,2013-03-03 10:01:00,
2013-03-03 05:11:00,32.0,27.0,29.62,WNW,302,2.0,6.0,83,0.00,,,0.00,,2013-03-03 10:11:00,
2013-03-03 05:21:00,32.0,27.0,29.63,West,260,3.0,8.0,83,0.00,,,0.00,,2013-03-03 10:21:00,
2013-03-03 05:32:00,32.0,28.0,29.63,West,263,2.0,6.0,84,0.00,,,0.00,,2013-03-03 10:32:00,
2013-03-03 05:42:00,32.0,28.0,29.63,West,263,2.0,6.0,84,0.00,,,0.00,,2013-03-03 10:42:00,
2013-03-03 05:52:00,32.0,28.0,29.63,WSW,240,2.0,8.0,84,0.00,,,0.00,,2013-03-03 10:52:00,
2013-03-03 06:01:00,31.0,27.0,29.63,WNW,300,1.0,4.0,85,0.00,,,0.00,,2013-03-03 11:01:00,
2013-03-03 06:11:00,31.0,27.0,29.63,WNW,300,1.0,4.0,85,0.00,,,0.00,,2013-03-03 11:11:00,
2013-03-03 06:22:00,31.0,27.0,29.63,West,264,1.0,7.0,85,0.00,,,0.00,,2013-03-03 11:22:00,
2013-03-03 06:32:00,31.0,27.0,29.63,West,260,3.0,6.0,85,0.00,,,0.00,,2013-03-03 11:32:00,
2013-03-03 06:42:00,31.0,27.0,29.63,West,260,3.0,6.0,85,0.00,,,0.00,,2013-03-03 11:42:00,
2013-03-03 06:53:00,31.0,27.0,29.63,NW,309,4.0,8.0,86,0.00,,,0.00,,2013-03-03 11:53:00,
2013-03-03 07:02:00,31.0,28.0,29.64,West,280,2.0,5.0,87,0.00,,,0.00,,2013-03-03 12:02:00,
2013-03-03 07:11:00,31.0,28.0,29.64,West,280,2.0,5.0,87,0.00,,,0.00,,2013-03-03 12:11:00,
2013-03-03 07:22:00,31.0,28.0,29.64,WSW,238,2.0,8.0,87,0.00,,,0.00,,2013-03-03 12:22:00,
2013-03-03 07:32:00,31.0,28.0,29.64,West,264,3.0,5.0,88,0.00,,,0.00,,2013-03-03 12:32:00,
2013-03-03 07:43:00,31.0,28.0,29.64,West,264,3.0,5.0,88,0.00,,,0.00,,2013-03-03 12:43:00,
2013-03-03 07:53:00,31.0,28.0,29.65,West,263,5.0,10.0,89,0.00,,,0.00,,2013-03-03 12:53:00,
2013-03-03 08:01:00,31.0,28.0,29.65,West,267,3.0,8.0,89,0.00,,,0.00,,2013-03-03 13:01:00,
2013-03-03 08:11:00,31.0,28.0,29.65,West,267,3.0,8.0,89,0.00,,,0.00,,2013-03-03 13:11:00,
2013-03-03 08:22:00,31.0,28.0,29.64,WSW,242,3.0,8.0,88,0.00,,,0.00,,2013-03-03 13:22:00,
2013-03-03 08:32:00,31.0,28.0,29.64,West,267,2.0,6.0,88,0.00,,,0.00,,2013-03-03 13:32:00,
2013-03-03 08:42:00,31.0,28.0,29.64,West,267,2.0,6.0,88,0.00,,,0.00,,2013-03-03 13:42:00,
2013-03-03 08:52:00,32.0,29.0,29.64,WSW,257,4.0,7.0,88,0.00,,,0.00,,2013-03-03 13:52:00,
2013-03-03 09:02:00,31.0,28.0,29.64,NW,319,3.0,6.0,90,0.00,,,0.00,,2013-03-03 14:02:00,
2013-03-03 09:11:00,31.0,28.0,29.64,NW,319,3.0,6.0,90,0.00,,,0.00,,2013-03-03 14:11:00,
2013-03-03 09:22:00,31.0,29.0,29.64,WNW,288,4.0,9.0,91,0.00,,,0.00,,2013-03-03 14:22:00,
2013-03-03 09:32:00,31.0,28.0,29.64,WSW,238,3.0,8.0,90,0.00,,,0.00,,2013-03-03 14:32:00,
2013-03-03 09:42:00,31.0,28.0,29.64,WSW,238,3.0,8.0,90,0.00,,,0.00,,2013-03-03 14:42:00,
2013-03-03 09:52:00,32.0,29.0,29.63,West,268,5.0,8.0,90,0.00,,,0.00,,2013-03-03 14:52:00,
2013-03-03 10:02:00,32.0,29.0,29.63,West,263,3.0,7.0,90,0.00,,,0.00,,2013-03-03 15:02:00,
2013-03-03 10:11:00,32.0,29.0,29.63,West,263,3.0,7.0,90,0.00,,,0.00,,2013-03-03 15:11:00,
2013-03-03 10:22:00,33.0,30.0,29.63,West,274,2.0,11.0,90,0.00,,,0.00,,2013-03-03 15:22:00,
2013-03-03 10:32:00,33.0,30.0,29.62,SW,225,6.0,9.0,88,0.00,,,0.00,,2013-03-03 15:32:00,
2013-03-03 10:42:00,33.0,30.0,29.62,SW,225,6.0,9.0,88,0.00,,,0.00,,2013-03-03 15:42:00,
2013-03-03 10:52:00,34.0,31.0,29.62,WSW,250,3.0,8.0,89,0.00,,,0.00,,2013-03-03 15:52:00,
2013-03-03 11:02:00,34.0,31.0,29.62,WSW,242,3.0,6.0,89,0.00,,,0.00,,2013-03-03 16:02:00,
2013-03-03 11:12:00,34.0,31.0,29.62,WSW,242,3.0,6.0,89,0.00,,,0.00,,2013-03-03 16:12:00,
2013-03-03 11:22:00,35.0,32.0,29.62,WSW,257,4.0,7.0,88,0.00,,,0.00,,2013-03-03 16:22:00,
2013-03-03 11:32:00,35.0,32.0,29.62,NW,310,5.0,10.0,88,0.00,,,0.00,,2013-03-03 16:32:00,
2013-03-03 11:42:00,35.0,32.0,29.62,NW,310,5.0,10.0,88,0.00,,,0.00,,2013-03-03 16:42:00,
2013-03-03 11:52:00,35.0,32.0,29.62,WNW,291,3.0,8.0,88,0.00,,,0.00,,2013-03-03 16:52:00,
2013-03-03 12:01:00,35.0,32.0,29.61,SW,228,3.0,7.0,88,0.00,,,0.00,,2013-03-03 17:01:00,
2013-03-03 12:11:00,36.0,33.0,29.61,WNW,302,3.0,7.0,88,0.00,,,0.00,,2013-03-03 17:11:00,
2013-03-03 12:22:00,36.0,33.0,29.61,WNW,302,3.0,7.0,88,0.00,,,0.00,,2013-03-03 17:22:00,
2013-03-03 12:32:00,36.0,33.0,29.60,NNE,29,2.0,6.0,87,0.00,,,0.00,,2013-03-03 17:32:00,
2013-03-03 12:42:00,36.0,33.0,29.60,NNE,29,2.0,6.0,87,0.00,,,0.00,,2013-03-03 17:42:00,
2013-03-03 12:52:00,37.0,33.0,29.59,WSW,255,3.0,9.0,86,0.00,,,0.00,,2013-03-03 17:52:00,
2013-03-03 13:02:00,38.0,33.0,29.59,NNW,327,2.0,6.0,83,0.00,,,0.00,,2013-03-03 18:02:00,
2013-03-03 13:11:00,38.0,33.0,29.59,NNW,327,2.0,6.0,83,0.00,,,0.00,,2013-03-03 18:11:00,
2013-03-03 13:22:00,37.0,32.0,29.59,North,5,3.0,6.0,83,0.00,,,0.00,,2013-03-03 18:22:00,
2013-03-03 13:32:00,37.0,32.0,29.58,NW,317,4.0,8.0,83,0.00,,,0.00,,2013-03-03 18:32:00,
2013-03-03 13:42:00,37.0,32.0,29.58,NW,317,4.0,8.0,83,0.00,,,0.00,,2013-03-03 18:42:00,
2013-03-03 13:52:00,37.0,32.0,29.58,WNW,302,3.0,7.0,83,0.00,,,0.00,,2013-03-03 18:52:00,
2013-03-03 14:02:00,37.0,32.0,29.58,WNW,284,1.0,8.0,83,0.00,,,0.00,,2013-03-03 19:02:00,
2013-03-03 14:11:00,37.0,32.0,29.58,WNW,284,1.0,8.0,83,0.00,,,0.00,,2013-03-03 19:11:00,
2013-03-03 14:22:00,38.0,33.0,29.58,West,266,3.0,4.0,82,0.00,,,0.00,,2013-03-03 19:22:00,
2013-03-03 14:32:00,38.0,32.0,29.58,WSW,250,5.0,6.0,80,0.00,,,0.00,,2013-03-03 19:32:00,
2013-03-03 14:42:00,38.0,32.0,29.58,WSW,250,5.0,6.0,80,0.00,,,0.00,,2013-03-03 19:42:00,
2013-03-03 14:52:00,38.0,32.0,29.57,WSW,242,4.0,6.0,80,0.00,,,0.00,,2013-03-03 19:52:00,
2013-03-03 15:01:00,39.0,33.0,29.57,SW,236,4.0,7.0,78,0.00,,,0.00,,2013-03-03 20:01:00,
2013-03-03 15:11:00,39.0,33.0,29.57,SW,236,4.0,7.0,78,0.00,,,0.00,,2013-03-03 20:11:00,
2013-03-03 15:22:00,39.0,33.0,29.57,NW,308,3.0,9.0,80,0.00,,,0.00,,2013-03-03 20:22:00,
2013-03-03 15:32:00,38.0,33.0,29.56,WNW,294,2.0,7.0,81,0.00,,,0.00,,2013-03-03 20:32:00,
2013-03-03 15:42:00,38.0,33.0,29.56,WNW,294,2.0,7.0,81,0.00,,,0.00,,2013-03-03 20:42:00,
2013-03-03 15:53:00,38.0,33.0,29.56,West,260,2.0,7.0,82,0.00,,,0.00,,2013-03-03 20:53:00,
2013-03-03 16:02:00,39.0,34.0,29.56,West,260,3.0,8.0,81,0.00,,,0.00,,2013-03-03 21:02:00,
2013-03-03 16:12:00,39.0,34.0,29.56,West,260,3.0,8.0,81,0.00,,,0.00,,2013-03-03 21:12:00,
2013-03-03 16:22:00,38.0,32.0,29.56,WSW,252,4.0,9.0,80,0.00,,,0.00,,2013-03-03 21:22:00,
2013-03-03 16:32:00,38.0,32.0,29.56,WSW,248,3.0,9.0,80,0.00,,,0.00,,2013-03-03 21:32:00,
2013-03-03 16:42:00,38.0,32.0,29.56,WSW,248,3.0,9.0,80,0.00,,,0.00,,2013-03-03 21:42:00,
2013-03-03 16:52:00,39.0,33.0,29.56,West,262,1.0,4.0,80,0.00,,,0.00,,2013-03-03 21:52:00,
2013-03-03 17:02:00,39.0,32.0,29.56,West,278,5.0,7.0,77,0.00,,,0.00,,2013-03-03 22:02:00,
2013-03-03 17:11:00,39.0,32.0,29.56,West,278,5.0,7.0,77,0.00,,,0.00,,2013-03-03 22:11:00,
2013-03-03 17:22:00,39.0,33.0,29.56,WSW,245,2.0,3.0,78,0.00,,,0.00,,2013-03-03 22:22:00,
2013-03-03 17:32:00,39.0,33.0,29.56,WSW,256,2.0,3.0,78,0.00,,,0.00,,2013-03-03 22:32:00,
2013-03-03 17:42:00,39.0,33.0,29.56,WSW,256,2.0,3.0,78,0.00,,,0.00,,2013-03-03 22:42:00,
2013-03-03 17:52:00,38.0,32.0,29.56,West,263,2.0,4.0,78,0.00,,,0.00,,2013-03-03 22:52:00,
2013-03-03 18:01:00,38.0,32.0,29.56,WSW,256,2.0,3.0,78,0.00,,,0.00,,2013-03-03 23:01:00,
2013-03-03 18:11:00,38.0,32.0,29.56,WSW,256,2.0,3.0,78,0.00,,,0.00,,2013-03-03 23:11:00,
2013-03-03 18:21:00,38.0,31.0,29.56,West,270,0.0,3.0,76,0.00,,,0.00,,2013-03-03 23:21:00,
2013-03-03 18:32:00,38.0,30.0,29.57,WSW,252,2.0,9.0,72,0.00,,,0.00,,2013-03-03 23:32:00,
2013-03-03 18:42:00,38.0,30.0,29.57,WSW,252,2.0,9.0,72,0.00,,,0.00,,2013-03-03 23:42:00,
2013-03-03 18:52:00,37.0,30.0,29.57,West,276,5.0,9.0,75,0.00,,,0.00,,2013-03-03 23:52:00,
2013-03-03 19:02:00,37.0,30.0,29.57,SW,229,4.0,9.0,77,0.00,,,0.00,,2013-03-04 00:02:00,
2013-03-03 19:11:00,37.0,30.0,29.57,SW,229,4.0,9.0,77,0.00,,,0.00,,2013-03-04 00:11:00,
2013-03-03 19:22:00,37.0,30.0,29.57,WSW,248,4.0,10.0,77,0.00,,,0.00,,2013-03-04 00:22:00,
2013-03-03 19:32:00,37.0,30.0,29.57,WNW,295,3.0,8.0,76,0.00,,,0.00,,2013-03-04 00:32:00,
2013-03-03 19:42:00,37.0,30.0,29.57,WNW,295,3.0,8.0,76,0.00,,,0.00,,2013-03-04 00:42:00,
2013-03-03 19:52:00,36.0,29.0,29.57,WSW,256,3.0,8.0,76,0.00,,,0.00,,2013-03-04 00:52:00,
2013-03-03 20:01:00,36.0,29.0,29.57,WSW,243,2.0,5.0,75,0.00,,,0.00,,2013-03-04 01:01:00,
2013-03-03 20:12:00,36.0,29.0,29.57,WSW,243,2.0,5.0,75,0.00,,,0.00,,2013-03-04 01:12:00,
2013-03-03 20:22:00,37.0,29.0,29.57,WSW,239,2.0,7.0,73,0.00,,,0.00,,2013-03-04 01:22:00,
2013-03-03 20:32:00,37.0,29.0,29.57,West,267,3.0,8.0,72,0.00,,,0.00,,2013-03-04 01:32:00,
2013-03-03 20:42:00,37.0,29.0,29.57,West,267,3.0,8.0,72,0.00,,,0.00,,2013-03-04 01:42:00,
2013-03-03 20:52:00,37.0,29.0,29.57,NW,314,5.0,12.0,72,0.00,,,0.00,,2013-03-04 01:52:00,
2013-03-03 21:01:00,36.0,28.0,29.58,WNW,293,5.0,11.0,72,0.00,,,0.00,,2013-03-04 02:01:00,
2013-03-03 21:11:00,36.0,28.0,29.58,WNW,293,5.0,11.0,72,0.00,,,0.00,,2013-03-04 02:11:00,
2013-03-03 21:22:00,36.0,29.0,29.58,WNW,294,5.0,15.0,76,0.00,,,0.00,,2013-03-04 02:22:00,
2013-03-03 21:32:00,35.0,29.0,29.58,NNW,330,4.0,13.0,78,0.00,,,0.00,,2013-03-04 02:32:00,
2013-03-03 21:42:00,35.0,29.0,29.58,NNW,330,4.0,13.0,78,0.00,,,0.00,,2013-03-04 02:42:00,
2013-03-03 21:53:00,35.0,29.0,29.58,NW,326,3.0,8.0,79,0.00,,,0.00,,2013-03-04 02:53:00,
2013-03-03 22:02:00,35.0,29.0,29.58,WNW,297,4.0,13.0,78,0.00,,,0.00,,2013-03-04 03:02:00,
2013-03-03 22:11:00,35.0,29.0,29.58,WNW,297,4.0,13.0,78,0.00,,,0.00,,2013-03-04 03:11:00,
2013-03-03 22:22:00,35.0,29.0,29.57,WSW,257,2.0,8.0,77,0.00,,,0.00,,2013-03-04 03:22:00,
2013-03-03 22:32:00,35.0,28.0,29.57,NNW,345,5.0,9.0,75,0.00,,,0.00,,2013-03-04 03:32:00,
2013-03-03 22:42:00,35.0,27.0,29.57,NW,308,6.0,14.0,72,0.00,,,0.00,,2013-03-04 03:42:00,
2013-03-03 22:53:00,35.0,27.0,29.57,NW,308,6.0,14.0,72,0.00,,,0.00,,2013-03-04 03:53:00,
2013-03-03 23:01:00,35.0,27.0,29.57,WNW,291,2.0,10.0,72,0.00,,,0.00,,2013-03-04 04:01:00,
2013-03-03 23:11:00,35.0,27.0,29.57,WNW,291,2.0,10.0,72,0.00,,,0.00,,2013-03-04 04:11:00,
2013-03-03 23:22:00,35.0,27.0,29.57,West,272,7.0,13.0,72,0.00,,,0.00,,2013-03-04 04:22:00,
2013-03-03 23:32:00,35.0,27.0,29.57,NW,316,6.0,14.0,73,0.00,,,0.00,,2013-03-04 04:32:00,
2013-03-03 23:42:00,35.0,27.0,29.57,NW,316,6.0,14.0,73,0.00,,,0.00,,2013-03-04 04:42:00,
2013-03-03 23:52:00,34.0,26.0,29.57,NW,318,3.0,10.0,73,0.00,,,0.00,,2013-03-04 04:52:00,